Probability
0 0 0 0 0 0 0 0 0 0 0 0 0 0 0 0 0 0 0 0 0 0 0 0 0 0 0 0 0 0 0 0 0 0 0 0 0 0 0 0 0 0 0
0 0 0 0 0 0 0 0 0 0 0 0 0 0 0 0 0 0 0 0 0 0 0 0 0 0 0 0 0 0 0 0 0 0 0 0 0 0 0 0 0 0 0
0 0 0 0 0 0 0 0 0 0 0 0 0 0 0 0 0 0 0 0 0 0 0 0 0 0 0 0 0 0 0 0 0 0 0 0 0 0 0 0 0 0 0
0 0 0 0 0 0 0 0 0 0 0 0 0 0 0 0 0 0 0 0 0 0 0 0 0 0 0 0 0 0 0 0 0 0 0 0 0 0 0 0 0 0 0
0 0 0 0 0 0 0 0 0 0 0 0 0 0 0 0 0 0 0 0 0 0 0 0 0 0 0 0 0 0 0 0 0 0 0 0 0 0 0 0 0 0 0
0 0 0 0 0 0 0 0 0 0 0 0 0 0 0 0 0 0 0 0 0 0 0 0 0 0 0 0 0 0 0 0 0 0 0 0 0 0 0 0 0 0 0
0 0 0 0 0 0 0 0 0 0 0 0 0 0 0 0 0 0 0 0 0 0 0 0 0 0 0 0 0 0 0 0 0 0 0 0 0 0 0 0 0 0 0
0 0 0 0 0 0 0 0 0 0 0 0 0 0 0 0 0 0 0 0 0 0 0 0 0 0 0 0 0 0 0 0 0 0 0 0 0 0 0 0 0 0 0
0 0 0 0 0 0 0 0 0 0 0 0 0 0 0 0 0 0 0 0 0 0 0 0 0 0 0 0 0 0 0 0 0 0 0 0 0 0 0 0 0 0 0
0 0 0 0 0 0 0 0 0 0 0 0 0 0 0 0 0 0 0 0 0 0 0 0 0 0 0 0 0 0 0 0 0 0 0 0 0 0 0 0 0 0 0
0 0 0 0 0 0 0 0 0 0 0 0 0 0 0 0 0 0 0 0 0 0 0 0 0 0 0 0 0 0 0 0 0 0 0 0 0 0 0 0 0 0 0
0 0 0 0 0 0 0 0 0 0 0 0 0 0 0 0 0 0 0 0 0 0 0 0 0 0 0 0 0 0 0 0 0 0 0 0 0 0 0 0 0 0 0
0 0 0 0 0 0 0 0 0 0 0 0 0 0 0 0 0 0 0 0 0 0 0 0 0 0 0 0 0 0 0 0 0 0 0 0 0 0 0 0 0 0 0
0 0 0 0 0 0 0 0 0 0 0 0 0 0 0 0 0 0 0 0 0 0 0 0 0 0 0 0 0 0 0 0 0 0 0 0 0 0 0 0 0 0 0
0 0 0 0 0 0 0 0 0 0 0 0 0 0 0 0 0 0 0 0 0 0 0 0 0 0 0 0 0 0 0 0 0 0 0 0 0 0 0 0 0 0 0
0 0 0 0 0 0 0 0 0 0 0 0 0 0 0 0 0 0 0 0 0 0 0 0 0 0 0 0 0 0 0 0 0 0 0 0 0 0 0 0 0 0 0
0 0 0 0 0 0 0 0 0 0 0 0 0 0 0 0 0 0 0 0 0 0 0 0 0 0 0 0 0 0 0 0 0 0 0 0 0 0 0 0 0 0 0
0 0 0 0 0 0 0 0 0 0 0 0 0 0 0 0 0 0 0 0 0 0 0 0 0 0 0 0 0 0 0 0 0 0 0 0 0 0 0 0 0 0 0
0 0 0 0 0 0 0 0 0 0 0 0 0 0 0 0 0 0 0 0 0 0 0 0 0 0 0 0 0 0 0 0 0 0 0 0 0 0 0 0 0 0 0
0 0 0 0 0 0 0 0 0 0 0 0 0 0 0 0 0 0 0 0 0 0 0 0 0 0 0 0 0 0 0 0 0 0 0 0 0 0 0 0 0 0 0
0 0 0 0 0 0 0 0 0 0 0 0 0 0 0 0 0 0 0 0 0 0 0 0 0 0 0 0 0 0 0 0 0 0 0 0 0 0 0 0 0 0 0
0 0 0 0 0 0 0 0 0 0 0 0 0 0 0 0 0 0 0 0 0 0 0 0 0 0 0 0 0 0 0 0 0 0 0 0 0 0 0 0 0 0 0
0 0 0 0 0 0 0 0 0 0 0 0 0 0 0 0 0 0 0 0 0 0 0 0 0 0 0 0 0 0 0 0 0 0 0 0 0 0 0 0 0 0 0
0 0 0 0 0 0 0 0 0 0 0 0 0 0 0 0 0 0 0 0 0 0 0 0 0 0 0 0 0 0 0 0 0 0 0 0 0 0 0 0 0 0 0
0 0 0 0 0 0 0 0 0 0 0 0 0 0 0 0 0 0 0 0 0 0 0 0 0 0 0 0 0 0 0 0 0 0 0 0 0 0 0 0 0 0 0
0 0 0 0 0 0 0 0 0 0 0 0 0 0 0 0 0 0 0 0 0 0 0 0 0 0 0 0 0 0 0 0 0 0 0 0 0 0 0 0 0 0 0
Wind_Speed
8 9 8 8 8 8 8 9 10 10 9 8 6 7 6 5 6 5 7 7 8 8 8 8 7 6 6 5 5 5 8 7 3 4 4 4 5 5 5 5 7 9 9
10 12 11 10 10 10 10 10 11 11 9 5 5 5 6 5 5 5 6 7 7 7 8 9 7 6 7 8 7 5 4 5 5 3 3 2 3 3 4 4 7 7 6
20 17 15 13 12 12 12 11 12 11 9 9 9 10 7 5 4 5 5 5 7 7 8 8 8 7 7 7 6 5 6 5 5 5 4 4 0 3 3 4 5 6 5
18 17 17 16 14 12 10 11 10 10 11 12 13 15 9 7 5 4 5 6 6 7 8 8 8 8 6 7 6 5 4 5 4 4 5 4 3 2 3 4 4 5 5
19 20 19 17 12 11 11 10 10 11 12 11 11 12 10 8 8 6 8 7 6 6 7 8 7 7 6 7 7 6 6 4 4 3 3 4 4 4 2 3 5 5 4
17 16 13 12 11 10 11 11 12 11 12 11 10 12 16 15 14 11 9 7 5 5 6 7 7 7 6 6 6 6 8 6 6 4 3 3 3 2 1 1 3 4 4
15 16 18 18 16 15 14 13 14 13 13 13 11 11 15 18 18 15 12 10 7 5 6 6 6 6 6 6 6 7 6 5 6 5 3 3 2 2 1 1 2 3 4
15 18 20 19 18 17 15 15 15 14 14 14 12 10 11 11 10 10 11 10 7 6 7 7 7 7 6 7 6 6 5 5 5 5 4 3 2 2 1 1 1 3 3
15 17 17 17 17 17 17 16 16 14 15 14 13 12 11 9 10 10 8 7 7 7 8 8 7 7 7 7 6 5 5 5 4 4 3 2 2 1 1 1 1 1 3
12 14 15 16 15 14 12 13 14 15 14 14 14 13 11 10 11 11 11 10 9 9 10 8 8 7 7 7 6 5 5 5 3 3 3 2 1 1 1 1 1 1 2
14 14 13 12 12 11 12 13 13 13 13 14 13 13 12 10 11 11 11 11 9 10 10 10 9 8 7 6 6 5 5 5 4 3 3 3 2 2 1 1 1 2 2
11 11 11 12 12 13 14 14 14 14 14 13 13 14 13 12 12 12 11 11 11 10 10 9 9 8 7 7 7 6 6 5 5 4 4 3 3 3 3 2 3 3 4
11 11 12 14 15 15 15 15 15 14 13 13 14 14 14 14 14 13 12 11 11 10 9 9 9 9 8 7 7 6 6 6 5 5 5 4 4 4 3 4 4 3 4
12 14 15 16 16 16 16 16 15 14 14 14 15 16 16 15 14 13 12 12 11 11 10 9 8 8 8 8 7 7 6 5 5 5 5 5 5 5 5 4 5 4 5
13 17 18 17 17 17 17 17 16 16 16 16 16 16 13 12 12 12 12 11 11 11 10 9 8 7 7 7 8 7 6 6 5 5 5 6 7 9 7 6 5 5 5
18 20 19 19 20 21 20 19 19 18 17 17 16 13 13 13 13 13 12 12 11 9 9 9 9 9 8 12 15 10 7 6 6 6 6 6 7 10 13 14 13 10 7
20 21 22 23 23 23 22 22 20 16 16 15 13 13 14 14 13 12 12 13 12 10 10 9 9 10 11 16 16 16 8 7 7 7 6 6 5 7 6 10 14 13 15
18 18 19 20 19 17 16 14 13 15 15 14 14 14 14 14 12 12 13 12 9 10 10 10 10 9 11 17 16 15 9 7 7 7 7 7 7 7 8 8 8 9 9
16 17 18 18 16 16 16 15 15 15 15 16 16 15 15 14 14 14 13 10 9 10 10 8 9 10 10 16 16 15 5 6 8 8 8 8 8 13 15 10 8 9 9
11 11 10 10 13 15 16 17 16 16 18 18 16 14 14 15 15 15 12 8 9 10 9 8 8 9 9 13 15 15 5 6 7 6 8 11 13 15 16 10 8 9 9
5 6 9 11 13 15 17 17 17 19 17 13 12 13 14 14 13 11 9 8 8 7 7 7 6 7 8 11 15 16 7 7 6 6 7 8 15 18 18 16 10 12 10
3 6 8 8 10 14 16 16 17 14 11 12 13 13 12 11 9 10 9 9 9 8 8 6 5 5 5 8 11 16 16 12 7 8 7 8 15 17 18 14 14 16 10
4 4 8 8 7 10 12 14 10 11 12 12 12 10 10 9 9 10 10 8 8 7 7 6 7 5 4 6 12 14 16 17 10 7 12 14 17 16 13 15 16 9 2
4 5 8 9 6 5 6 7 9 11 12 12 10 9 9 8 7 6 7 8 8 8 7 7 6 5 4 4 4 5 6 10 10 7 8 14 17 15 11 7 8 3 3
3 4 6 8 7 7 7 7 9 11 10 9 8 8 7 8 7 5 5 7 5 7 8 6 5 5 5 7 10 6 6 5 7 5 3 3 4 5 4 3 3 3 3
4 5 6 7 7 7 7 6 6 9 10 8 7 6 6 5 6 6 3 5 6 8 9 9 7 5 7 8 10 11 12 12 12 7 4 5 5 6 6 6 5 5 5
Wind_Direction
197 184 185 180 174 170 165 160 152 150 142 135 127 116 104 96 85 76 80 87 91 93 97 98 86 80 81 73 72 81 68 50 33 83 69 43 46 65 54 49 47 30 19
188 191 188 184 182 179 175 171 165 163 161 143 128 119 118 101 87 83 75 76 87 94 100 99 95 87 85 69 56 69 81 52 28 85 100 57 5 14 34 36 41 24 9
197 191 190 189 185 185 181 176 171 167 153 138 126 118 107 99 88 89 79 70 82 86 97 98 97 87 86 84 69 70 91 94 45 45 103 113 84 324 338 20 32 13 1
197 190 189 189 190 186 178 174 169 160 151 150 149 146 144 140 139 132 111 91 84 91 94 96 96 93 91 89 80 71 81 101 88 54 46 79 121 89 333 333 354 356 348
196 192 190 188 182 176 174 170 161 158 158 161 159 146 135 128 130 122 113 104 91 89 94 98 100 98 94 93 91 82 76 78 93 92 83 68 59 67 96 313 324 330 318
195 190 181 172 172 171 170 167 163 163 163 161 161 151 144 143 143 142 134 125 114 102 101 102 101 102 102 101 99 93 88 86 86 83 81 97 97 81 91 265 293 303 300
185 180 177 178 177 176 174 171 168 167 167 163 162 160 155 153 154 153 149 145 140 135 131 120 115 111 110 108 104 98 94 94 96 96 89 87 96 118 135 192 279 292 291
185 186 185 182 179 178 175 174 174 170 169 167 164 161 158 156 155 155 153 152 150 145 141 132 125 123 121 116 109 103 102 102 104 104 105 103 98 101 119 151 244 302 297
190 188 184 182 179 179 179 177 174 171 172 168 163 164 164 160 156 152 148 147 145 144 142 137 132 130 126 123 119 114 116 117 113 117 117 119 121 113 115 125 155 243 302
189 186 184 183 182 179 174 173 175 174 171 168 168 169 168 162 158 155 156 155 152 147 148 144 141 138 133 130 125 125 132 129 131 136 136 138 145 141 140 149 178 191 225
191 188 186 181 177 172 173 176 176 171 171 172 169 165 167 163 160 162 163 160 155 155 156 155 151 147 144 142 140 144 148 148 154 162 167 180 177 179 191 201 213 221 219
187 182 177 174 178 181 181 182 181 178 176 172 169 168 167 165 166 167 166 162 160 162 160 157 155 154 155 156 158 162 168 172 181 191 193 207 202 209 212 213 224 228 226
177 175 178 184 187 188 187 187 185 181 174 171 169 169 171 171 173 171 167 166 164 163 162 163 164 165 166 168 173 175 181 189 197 200 207 215 213 227 222 223 230 233 247
184 185 190 193 192 191 190 189 188 181 175 174 174 177 179 177 174 170 169 170 169 168 171 174 172 171 171 175 180 185 192 200 208 212 218 220 219 229 230 235 233 235 244
196 198 199 197 193 192 192 190 187 182 179 178 182 183 177 172 168 170 171 171 173 176 174 172 173 174 177 186 187 192 196 204 216 223 227 230 233 239 239 241 233 231 240
209 208 204 199 197 195 193 189 188 184 181 184 185 177 172 172 174 174 172 173 176 174 173 180 180 185 195 203 203 198 202 209 218 229 231 235 238 250 258 262 262 254 246
215 211 206 203 201 197 192 191 187 177 180 184 178 174 175 178 179 175 175 180 180 176 182 187 188 197 208 208 211 211 202 210 219 225 231 240 236 231 244 261 268 271 271
221 215 210 207 202 192 185 178 168 172 179 180 179 177 177 180 176 177 184 184 178 183 189 193 196 203 216 217 219 220 212 213 222 225 227 238 244 237 241 245 250 249 253
222 216 209 202 189 181 173 164 168 171 178 184 185 182 180 179 179 186 189 184 179 187 194 192 196 206 221 222 225 224 210 224 232 229 228 234 242 252 257 254 249 255 256
222 210 190 173 168 167 158 162 170 175 187 190 186 180 179 182 187 191 187 180 184 192 191 199 201 207 218 224 227 228 212 229 238 237 238 239 244 253 256 250 244 253 256
209 173 158 163 165 157 158 167 173 188 189 176 171 175 182 187 188 183 177 174 180 181 190 202 205 208 215 228 231 231 218 223 235 240 242 242 254 258 260 255 244 249 256
123 139 143 145 146 153 160 171 185 183 159 161 171 177 181 181 176 174 175 174 177 185 195 200 213 215 210 216 232 237 238 235 227 239 242 244 256 260 261 261 259 265 265
94 105 120 119 130 154 163 173 171 146 150 160 170 171 170 173 171 174 174 171 176 188 195 199 217 219 202 225 235 241 245 248 244 244 251 256 260 263 263 263 264 266 227
76 96 113 119 120 127 135 141 137 142 148 157 160 160 163 164 162 167 169 174 181 189 193 199 212 213 203 208 217 230 248 254 257 263 266 269 268 265 257 253 261 242 204
77 99 117 121 116 108 104 115 132 137 141 144 146 149 153 156 157 159 174 178 185 188 190 197 192 194 215 221 220 213 216 220 233 245 250 249 253 251 250 245 237 229 221
109 108 108 114 115 113 110 115 130 137 137 139 145 148 147 147 149 148 137 187 179 196 203 193 188 205 219 231 238 246 249 250 249 243 241 244 243 245 245 242 240 231 230